THOR ABLESTAR DEB, 463

Orbit data source: Space-Track

THOR ABLESTAR DEB, 463 is space debris in LEO originally from a launch on Thu, 29 Jun 1961 UTC launched from the Air Force Eastern Test Range (AFETR). Debris objects in space refer to the collection of defunct objects orbiting the Earth. Examples of debris include non-operational satellites, rocket bodies, and fragments generated from explosions, collisions, or faulty payload assembly.

Loading next visibility...
Identifier
463, 1961-015EZ
Orbit
LEO
Country
Flag of USUS
Related business
Manufacturer
Unknown
Mission
Spacecraft
Bus & Motor
Unknown
Mass
Unknown
Launch date (UTC)
1961-06-29 (64 years ago)
Launch vehicle
Unknown
Launch site
Air Force Eastern Test Range (AFETR)
Object type
Payload
Rocket body
Debris
Shape & HBR
Unknown shape, 0.1 m
Radar Cross Section
Small (<0.1 m²)

Expand to show TLE details & history
Last TLE update: 14 hours ago

TLE from 14 hours ago
0 THOR ABLESTAR DEB
1 00463U 61015EZ  25349.98321717  .00002088  00000-0  48904-3 0  9993
2 00463  66.7652 187.8867 0040469  30.7760 329.5712 14.56134183342440
Epoch: 2025-12-15T23:35Z
TLE epoch observation values (Epoch: 2025-12-15T23:35:49.963Z)
Latitude
-0.00006°
Longitude
109.05454°
Altitude
683.13 km
Speed
7.529 km/s
True Right ascension
12h 31m 32s
True Declination
0° 00' 00"
Sunlit
Object was in daylight at epoch
Visualization orbit readout
Latitude
Unknown
Longitude
Unknown
Altitude
Unknown
Speed
Unknown
Apparent Right ascension
Unknown
Apparent Declination
Unknown
Sunlit
N/A
Visualization observer readout
Local Sidereal Time
12:38:18
Azimuth
Unknown
Elevation
Unknown
Doppler factor
Unknown
Orbital elements
Apogee altitude
732.692 km
Perigee altitude
675.371 km
Semi-major axis
7,082.168 km
Eccentricity
0.00405
Inclination
66.7652°
RAAN
187.8867°
Arg. of periapsis
30.776°
True anomaly
329.3353°
Mean anomaly
329.5712°
Eccentric anomaly
329.45335°
Mean motion
3.64161 °/min
Orbital period
98.86 mins
BSTAR
0.00048904
Loading maneuver chart data...
Computing Atmospheric mass density...

Documentation

Showing up to 5 results
|